Vorticity
6 5 2 2 3 5 5 9 10 11 11 10 8 6 5 4 4 4 3 4 4 5 7 8 9 7 5 3 4 8 9 8 6
7 7 7 7 8 2 0 1 1 1 1 1 3 7 10 11 11 12 12 12 10 10 9 8 8 7 6 5 5 4 3 4 3
6 7 8 8 7 6 6 7 6 6 6 5 6 6 5 4 4 4 4 4 4 4 4 5 6 6 6 5 5 5 4 3 3
7 6 6 6 8 7 7 7 7 6 6 6 6 6 6 6 6 6 7 7 7 7 8 8 8 7 7 7 7 6 6 5 5
6 6 8 10 9 10 12 12 14 15 15 14 11 8 8 9 10 11 11 10 9 8 7 7 7 7 7 9 9 8 6 6 6
5 6 4 2 1 0 0 -1 0 -0 0 2 7 10 10 9 7 6 6 5 4 4 5 6 6 7 7 6 6 6 8 9 10
5 3 2 2 1 2 3 2 2 2 2 2 4 4 3 5 6 5 5 5 5 6 5 6 10 11 13 13 11 9 9 9 10
4 4 3 4 4 3 3 4 4 9 13 14 11 7 6 5 4 4 5 5 5 7 6 8 6 5 5 6 9 11 11 11 10
3 5 4 3 3 3 4 4 11 1 9 12 14 17 11 8 5 3 1 3 5 6 7 5 3 3 5 7 10 9 8 7 8
9 3 3 3 3 2 5 5 0 8 4 7 7 4 20 17 10 7 6 7 4 5 4 3 3 6 6 6 6 7 7 7 6
4 6 4 4 4 5 7 3 2 9 5 3 4 2 2 1 2 4 5 6 7 5 3 7 9 8 9 10 9 8 8 8 8
4 6 5 5 3 5 5 2 5 9 8 5 5 5 4 3 3 3 5 5 4 5 8 9 10 12 9 9 8 7 7 7 6
6 7 5 5 3 4 4 4 11 8 5 4 4 3 4 6 5 5 5 5 5 7 8 10 9 7 7 7 6 6 6 5 5
7 6 6 5 3 5 4 10 10 7 5 4 4 5 6 7 7 8 10 12 14 13 10 6 5 4 3 3 3 2 3 5 7
7 8 8 4 4 4 6 6 5 4 4 5 7 6 6 6 9 11 11 9 6 6 7 6 5 5 5 6 8 9 8 5 5
7 7 5 4 5 4 4 3 3 4 5 8 8 5 7 8 9 9 7 6 7 7 6 5 7 9 8 6 6 6 7 7 7
9 3 5 5 4 4 4 4 5 7 7 6 4 8 9 10 10 8 10 7 6 6 6 8 8 6 5 7 8 8 8 8 7
4 4 5 5 4 3 4 6 7 6 5 7 6 8 5 6 8 8 6 6 6 8 8 6 7 9 9 8 7 6 6 4 3
3 3 4 4 3 5 7 7 5 6 6 6 6 7 11 6 7 6 7 9 7 4 8 12 12 10 9 7 6 4 2 1 2
4 4 4 3 6 8 7 5 6 6 5 6 8 9 7 8 8 8 6 3 9 14 13 10 8 5 5 5 3 3 3 2 3
Height
5848 5849 5849 5849 5850 5849 5847 5847 5847 5847 5847 5848 5848 5847 5848 5847 5846 5846 5845 5844 5843 5841 5841 5840 5840 5839 5838 5838 5838 5837 5837 5837 5836
5845 5845 5845 5845 5845 5845 5844 5844 5843 5843 5843 5843 5843 5842 5842 5841 5841 5840 5840 5838 5837 5835 5835 5834 5834 5834 5833 5832 5832 5831 5830 5830 5830
5841 5841 5841 5841 5841 5841 5840 5840 5839 5839 5839 5838 5838 5837 5837 5836 5835 5835 5834 5833 5831 5830 5829 5828 5828 5827 5826 5826 5826 5825 5824 5823 5823
5837 5837 5837 5837 5837 5837 5836 5836 5835 5834 5834 5834 5833 5832 5832 5831 5829 5828 5827 5826 5825 5824 5822 5822 5821 5820 5819 5818 5817 5817 5816 5815 5815
5834 5833 5834 5833 5832 5832 5832 5831 5831 5830 5829 5829 5827 5826 5825 5825 5823 5822 5821 5820 5819 5817 5816 5815 5814 5812 5811 5810 5809 5808 5807 5806 5805
5830 5829 5829 5829 5829 5829 5828 5827 5826 5826 5825 5824 5822 5820 5819 5819 5817 5815 5815 5814 5813 5811 5809 5808 5806 5804 5803 5801 5800 5799 5798 5797 5796
5826 5825 5825 5825 5825 5824 5823 5821 5820 5820 5819 5818 5816 5814 5814 5813 5811 5808 5808 5807 5805 5804 5802 5800 5797 5796 5794 5792 5791 5789 5788 5787 5786
5820 5821 5821 5820 5819 5819 5817 5816 5815 5813 5811 5809 5808 5807 5806 5805 5803 5801 5800 5799 5797 5795 5793 5791 5789 5787 5785 5783 5782 5781 5779 5777 5776
5815 5816 5816 5815 5815 5813 5812 5810 5809 5807 5805 5802 5800 5799 5798 5797 5795 5794 5792 5790 5788 5786 5785 5782 5780 5777 5775 5773 5772 5770 5768 5767 5766
5810 5810 5810 5810 5809 5807 5806 5804 5803 5801 5799 5795 5793 5792 5791 5788 5787 5785 5783 5781 5778 5777 5774 5772 5769 5767 5764 5762 5760 5759 5758 5757 5756
5805 5805 5804 5804 5803 5802 5799 5797 5796 5794 5793 5789 5787 5785 5785 5782 5780 5777 5775 5772 5770 5767 5764 5761 5758 5756 5754 5752 5749 5747 5746 5744 5744
5798 5798 5798 5798 5796 5795 5793 5791 5790 5787 5785 5782 5781 5778 5777 5775 5772 5769 5766 5762 5759 5757 5753 5750 5748 5745 5743 5741 5739 5737 5735 5734 5732
5791 5791 5791 5791 5790 5788 5786 5785 5782 5779 5777 5774 5774 5770 5768 5766 5763 5760 5756 5752 5749 5746 5743 5740 5738 5735 5733 5730 5728 5725 5723 5722 5720
5784 5784 5785 5784 5783 5781 5780 5777 5775 5772 5769 5767 5765 5762 5759 5756 5753 5749 5745 5741 5738 5734 5731 5729 5726 5723 5720 5717 5714 5712 5709 5707 5704
5778 5778 5778 5777 5776 5774 5772 5770 5767 5764 5761 5759 5755 5752 5749 5745 5741 5737 5733 5730 5726 5723 5719 5716 5712 5709 5706 5702 5699 5696 5692 5690 5687
5771 5772 5771 5770 5768 5766 5763 5762 5758 5756 5754 5751 5746 5743 5739 5735 5730 5726 5722 5717 5713 5709 5705 5701 5697 5693 5690 5686 5683 5679 5675 5672 5669
5764 5764 5763 5762 5760 5757 5755 5752 5749 5747 5744 5740 5737 5733 5729 5724 5719 5714 5710 5705 5700 5695 5690 5685 5680 5676 5672 5668 5664 5659 5655 5652 5648
5757 5756 5755 5754 5751 5749 5746 5743 5739 5737 5733 5729 5726 5723 5720 5716 5711 5704 5698 5692 5686 5679 5674 5668 5662 5657 5653 5649 5644 5640 5636 5632 5627
5749 5748 5747 5745 5742 5740 5737 5733 5729 5725 5721 5717 5713 5709 5704 5701 5701 5697 5689 5683 5676 5670 5662 5654 5647 5641 5636 5631 5626 5622 5616 5611 5606
5741 5740 5738 5736 5733 5730 5726 5722 5718 5714 5709 5705 5700 5694 5689 5684 5681 5680 5676 5670 5662 5655 5646 5638 5631 5624 5618 5613 5608 5602 5596 5588 5581